Weather History for PAKF - October, 2012

Change the Weather History Date:

Wednesday, October 3, 2012

  Actual Average (PACD) Record (PACD)
Temperature  
Mean Temperature 48 °F 44 °F  
Max Temperature 46 °F 49 °F 59 °F (1954)
Min Temperature 46 °F 39 °F 31 °F (1961)
Degree Days  
Heating Degree Days 16 21  
Month to date heating degree days 63  
Since 1 July heating degree days 1414  
Cooling Degree Days 0    
Month to date cooling degree days  
Year to date cooling degree days  
Moisture  
Dew Point 47 °F    
Average Humidity 93    
Maximum Humidity 100    
Minimum Humidity 77    
Precipitation  
Precipitation 0.42 in 0.16 in 0.54 in (1957)
Month to date precipitation 0.48  
Year to date precipitation 27.95  
Snow  
Snow 0.00 in 0.00 in 0.10 in (1987)
Month to date snowfall 0.0  
Since 1 July snowfall 0.0  
Since 1 September snowfall 0.0  
Snow Depth -    
Sea Level Pressure  
Sea Level Pressure 29.44 in    
Wind  
Wind Speed - (North)    
Max Wind Speed -    
Max Gust Speed -    
Visibility 4 miles    
Events Rain    
T = Trace of Precipitation, MM = Missing Value Source: NWS Daily Summary

Daily Weather History Graph

Daily Weather History Graph

Search for Another Location

Airport or City:

Trip Planner

Search our weather history database for the weather conditions in past years. The results will help you decide how hot, cold, wet, or windy it might be!

Date:

Astronomy

Oct. 03, 2012 Rise Set
Actual Time 8:01 AM HDT 7:22 PM HDT
Civil Twilight 7:25 AM HDT 7:58 PM HDT
Nautical Twilight 6:43 AM HDT 8:40 PM HDT
Astronomical Twilight 6:00 AM HDT 9:23 PM HDT
Moon 8:40 PM HDT (10/3) 12:17 PM HDT (10/3)
Length of Visible Light 12h 33m
Length of Day
11h 21m
Waning Gibbous, 87% of the Moon is Illuminated
Oct 3
Waning Gibbous
Oct 7
Last Quarter
Oct 15
New
Oct 21
First Quarter
Oct 29
Full

Hourly Weather History & Observations

Time (HDT) Temp. Dew Point Humidity Pressure Visibility Wind Dir Wind Speed Gust Speed Precip Events Conditions
12:01 AM 48.0 °F 46.9 °F 96% 30.00 in 4.0 mi North - - 0.04 in Rain Light Rain
12:33 AM 48.2 °F 46.4 °F 93% 29.72 in 10.0 mi North - - 0.00 in   Overcast
1:01 AM 46.9 °F 46.0 °F 97% 29.99 in 10.0 mi North - - 0.00 in   Overcast
2:01 AM 46.4 °F 46.4 °F 100% 29.68 in 4.0 mi North - - 0.00 in Rain Light Rain
2:43 AM 46.4 °F 46.4 °F 100% 29.65 in 3.0 mi North - - 0.02 in Rain Light Rain
3:01 AM 46.9 °F 46.0 °F 97% 29.91 in 5.0 mi North - - 0.03 in Rain Rain
4:01 AM 46.9 °F 46.0 °F 97% 29.86 in 4.0 mi North - - 0.03 in Rain Light Rain
5:01 AM 48.0 °F 46.0 °F 93% 29.80 in 4.0 mi North - - 0.01 in Rain Light Rain
5:14 AM 48.2 °F 46.4 °F 93% 29.51 in 3.0 mi North - - 0.00 in Rain Light Rain
6:01 AM 48.0 °F 46.9 °F 96% 29.75 in 4.0 mi North - - 0.00 in Rain Light Rain
7:01 AM 48.0 °F 46.9 °F 96% 29.69 in 3.0 mi North - - 0.00 in Rain Light Rain
8:01 AM 48.2 °F 46.4 °F 93% 29.38 in 2.5 mi North - - 0.00 in Rain Light Rain
8:18 AM 48.2 °F 48.2 °F 100% 29.36 in 3.0 mi North - - 0.01 in Rain Light Rain
8:32 AM 48.2 °F 48.2 °F 100% 29.34 in 5.0 mi North - - 0.01 in Rain Light Rain
9:01 AM 48.9 °F 48.0 °F 97% 29.60 in 8.0 mi North - - 0.01 in Rain Light Rain
9:34 AM 50.0 °F 48.2 °F 94% 29.30 in 5.0 mi North - - 0.00 in Rain Light Rain
10:01 AM 51.1 °F 48.9 °F 92% 29.57 in 5.0 mi North - - 0.01 in Rain Light Rain
10:09 AM 51.8 °F 48.2 °F 88% 29.29 in 5.0 mi North - - 0.00 in Rain Light Rain
11:01 AM 50.0 °F 48.9 °F 96% 29.55 in 8.0 mi North - - 0.00 in Rain Light Rain
11:46 AM 50.0 °F 48.2 °F 94% 29.27 in 2.5 mi North - - 0.05 in Rain Light Rain
12:01 PM 50.0 °F 48.2 °F 94% 29.26 in 3.0 mi North - - 0.07 in Rain Light Rain
12:07 PM 51.8 °F 48.2 °F 88% 29.26 in 2.5 mi North - - 0.08 in Rain Light Rain
12:13 PM 50.0 °F 48.9 °F 96% 29.54 in 2.0 mi North - - 0.09 in Rain Light Rain
12:52 PM 50.0 °F 48.2 °F 94% 29.25 in 1.8 mi North - - 0.07 in Rain Light Rain
1:01 PM 50.0 °F 48.9 °F 96% 29.52 in 1.5 mi North - - 0.07 in Rain Light Rain
1:30 PM 50.0 °F 48.2 °F 94% 29.23 in 2.5 mi North - - 0.02 in Rain Light Rain
1:48 PM 50.0 °F 48.2 °F 94% 29.24 in 3.0 mi North - - 0.02 in Rain Light Rain
2:01 PM 50.0 °F 48.0 °F 93% 29.51 in 4.0 mi North - - 0.03 in Rain Light Rain
2:28 PM 50.0 °F 48.2 °F 94% 29.22 in 4.0 mi North - - 0.00 in Rain Light Rain
3:01 PM 48.9 °F 46.9 °F 93% 29.49 in 7.0 mi North - - 0.01 in Rain Light Rain
3:20 PM 48.2 °F 46.4 °F 93% 29.21 in 5.0 mi North - - 0.00 in Rain Light Rain
3:28 PM 48.2 °F 46.4 °F 93% 29.21 in 5.0 mi North - - 0.00 in Rain Light Rain
3:37 PM 48.2 °F 46.4 °F 93% 29.21 in 3.0 mi North - - 0.00 in Rain Light Rain
4:01 PM 48.2 °F 46.4 °F 93% 29.20 in 5.0 mi North - - 0.02 in Rain Light Rain
4:39 PM 48.2 °F 46.4 °F 93% 29.20 in 2.5 mi North - - 0.03 in Rain Light Rain
4:50 PM 48.2 °F 46.4 °F 93% 29.19 in 3.0 mi North - - 0.03 in Rain Light Rain
5:01 PM 48.0 °F 46.0 °F 93% 29.47 in 7.0 mi North - - 0.03 in Rain Light Rain
6:01 PM 48.0 °F 46.0 °F 93% 29.44 in 3.0 mi North - - 0.02 in Rain Light Rain
6:25 PM 48.2 °F 46.4 °F 93% 29.17 in 2.0 mi North - - 0.00 in Rain Light Rain
7:01 PM 48.0 °F 46.0 °F 93% 29.44 in 2.0 mi North - - 0.02 in Rain Light Rain
7:38 PM 48.2 °F 46.4 °F 93% 29.17 in 4.0 mi North - - 0.01 in Rain Light Rain
8:01 PM 48.0 °F 45.0 °F 89% 29.45 in 4.0 mi North - - 0.02 in Rain Light Rain
8:21 PM 46.4 °F 44.6 °F 93% 29.19 in 2.5 mi North - - 0.01 in Rain Light Rain
8:28 PM 46.4 °F 44.6 °F 93% 29.19 in 3.0 mi North - - 0.01 in Rain Light Rain
9:01 PM 46.9 °F 45.0 °F 93% 29.47 in 4.0 mi North - - 0.03 in Rain Light Rain
9:56 PM 46.4 °F 42.8 °F 87% 29.22 in 6.0 mi North - - 0.01 in Rain Light Rain
10:01 PM 46.9 °F 43.0 °F 86% 29.49 in 9.0 mi North - - 0.01 in Rain Light Rain
10:17 PM 46.4 °F 42.8 °F 87% 29.22 in 8.0 mi North - - 0.00 in Rain Light Rain
11:01 PM 46.9 °F 39.9 °F 77% 29.53 in 9.0 mi North - - 0.00 in Rain Light Rain